Flag for Marshall Islands Weather past 2 weeks in Majuro, Marshall Islands

Now
81 °F

Mostly cloudy.


Feels Like: 88 °F
Forecast: 82 / 86 °F
Wind: 9 mph from East

Location: Majuro Atoll

Current Time: Feb 1, 2015 at 7:18:57 AM

Latest Report: Feb 1, 2015 at 6:55 AM


Visibility: 15 mi

Pressure: 29.75 "Hg

Humidity: 82%

Dew point: 75 °F

Location of MajuroLocation

Historic Weather in Majuro — Graph

°F

Majuro temperature yesterday

Maximum temperature yesterday: 85 °F (at 1:52 PM)
Minimum temperature yesterday: 78 °F (at 3:55 AM)
Average temperature yesterday: 82 °F

Past Weeks' High & Low Weather Summary

 TemperatureHumidityPressure
High87 °F (Jan 26, 1:51 PM)94% (Jan 17, 4:54 PM)29.95 "Hg (Jan 17, 4:54 PM)
Low76 °F (Jan 28, 8:54 AM)62% (Jan 23, 11:50 AM)29.65 "Hg (Jan 27, 3:54 PM)
Average82 °F77%29.80 "Hg
* Reported Jan 17 5:51 AM — Feb 1 5:52 AM, Majuro, Weather by CustomWeather, © 2014

Note: Actual official high and low records may vary slightly from our data, if they occured in-between our weather recording intervals... More about our weather records

Advertising

Majuro weather history for previous 24 hours

 ConditionsComfort  
Time TempWeatherWind HumidityBarometerVisibility
5:52 AM
Feb 1
81 °FOvercast.12 mph83%29.73 "Hg15 mi
4:51 AM81 °FMostly cloudy.14 mph83%29.72 "Hg15 mi
3:54 AM81 °FMostly cloudy.9 mph86%29.71 "Hg15 mi
2:58 AM81 °FMostly cloudy.8 mph86%29.72 "Hg15 mi
1:58 AM80 °FOvercast.8 mph89%29.73 "Hg15 mi
12:50 AM80 °FOvercast.9 mph88%29.76 "Hg15 mi
11:55 PM
Jan 31
79 °FOvercast.8 mph93%29.77 "Hg15 mi
10:51 PM80 °FOvercast.10 mph87%29.78 "Hg15 mi
9:56 PM79 °FPartly cloudy.13 mph89%29.78 "Hg15 mi
8:52 PM79 °FOvercast.18 mph90%29.77 "Hg15 mi
7:54 PM80 °FSprinkles. Overcast.9 mph90%29.75 "Hg8 mi
6:50 PM82 °FMore clouds than sun.13 mph86%29.72 "Hg15 mi
5:57 PM82 °FMore clouds than sun.12 mph84%29.72 "Hg15 mi
4:54 PM83 °FCloudy.13 mph83%29.70 "Hg15 mi
3:52 PM83 °FCloudy.10 mph80%29.68 "Hg15 mi
2:52 PM85 °FCloudy.13 mph77%29.70 "Hg15 mi
1:52 PM85 °FCloudy.14 mph78%29.72 "Hg15 mi
12:53 PM83 °FCloudy.12 mph84%29.75 "Hg15 mi
11:51 AM83 °FLight rain. Cloudy.12 mph87%29.77 "Hg14 mi
10:50 AM84 °FCloudy.15 mph78%29.79 "Hg15 mi
9:53 AM84 °FCloudy.12 mph79%29.80 "Hg15 mi
8:51 AM84 °FCloudy.9 mph81%29.78 "Hg15 mi
7:50 AM82 °FOvercast.10 mph84%29.77 "Hg15 mi
Weather by CustomWeather, © 2014

See weather overviewHow to use our weather pages